Pagina principale
METAR-TAF:

METAR-TAF

Aeroporti :

Calhoun, Georgia, Stati Uniti

latitudine: 34-27-20N, longitudine: 084-56-21W, altezza: 198 m

Osservazione

Il bollettino è stato emesso 23 minuti fa, alle 23:15 UTC
Vento 7 kt da sud/sud-ovest
Temperature 22°C
Umidità 23%
Pressione 1020 hPa
Visibilità: 16.1 km
Cielo sereno

METAR: KCZL 242315Z AUTO 21007KT 10SM CLR 22/00 A3012 RMK AO2

Ora: 19:38 (23:38 UTC)


TAF: mancante

Osservazioni e previsioni meteorologiche di più di 4000 aeroporti (messaggi METAR e TAF).

Le stazioni disponibili sono rappresentate dai dischi gialli e rossi sulla carta.

Puntare il mouse per vedere il nome della stazione.

Clicca sopra per visualizzare le osservazioni e previsioni meteorologiche.

Per cambiare la mappa : fare clic sui pulsanti verdi con una croce nera per ingrandire, il pulsante verde con un trattino per diminuire, o sulla freccia verde per le mappe adiacenti.


METAR-TAF: